SBIRS GEO 1 (USA 230)

导读 | 豆包AI

SBIRS GEO 1(USA 230)是美国天基红外系统(SBIRS)的首颗地球静止轨道卫星,于2011年5月7日发射入轨。该卫星搭载扫描型与凝视型双探测器,相比传统预警卫星,扫描速度、灵敏度提升超十倍,可在导弹发射10-20秒内传递预警信息,大幅延长了不同类型导弹的预警时间,还填补了北极地区探测盲区,是美国弹道导弹预警天基体系的核心首发节点,2021年已由新一代GEO-5卫星接替其任务。

Basic Information
目录编号:
37481
目录名称:
SBIRS GEO 1 (USA 230)
国际标识:
2011-019A
轨道中心:
EARTH
卫星名称:
SBIRS GEO 1 (USA 230)
卫星全名:
--
卫星状态:
在轨 (已飞行5473 天)
发射日期:
2011-05-07 UTC
国别 :
美国 (US)
星等 :
--
Orbit Information
数据来源 国际轨道数据 AOE轨道数据
星历时间 2026-05-01T06:11:57+0800
13小时前
查看轨道信息
2026-05-01T06:00:00+0800
14小时前
查看轨道信息
半长轴 42164.672km 42164.616km
偏心率 0.0002201 0.0002344
轨道倾角 4.434° 4.433°
近地点辐角 340.667° 339.629°
升交点赤经 53.123° 53.126°
平近点角 209.867° 207.905°
近地点 35777.254km 35776.595km
远地点 35795.816km 35796.363km
周期 1436.094分钟 1436.091分钟
每日圈数 1.00272 1.002722
Detailed Information
使用方式:
暂无
2D Orbit Map
3D Orbit Map
Orbit Altitude Analysis Chart
Orbit Inclination Analysis Chart
Orbit Comprehensive Analysis Chart
View Comprehensive Chart